Location: Cahas Mountain Overlook
(37.0833°N, 80.1000°W)
Time: 18:51:44
(UTC-04:00)

SR - Pass Details

Date: 11 February 2026
Orbit: 572 x 849 km, 66.7° (Epoch: 12 March)

Event Time Altitude Azimuth Distance (km) Brightness Sun altitude
Rises 05:44:53 0° 194° (SSW) 2,763 ? -18.2°
Reaches altitude 10° 05:47:08 10° 188° (S) 1,865 ? -17.7°
Maximum altitude 05:51:08 49° 114° (ESE) 742 ? -16.9°
Drops below altitude 10° 05:55:15 10° 39° (NE) 1,916 ? -16.1°
Sets 05:57:35 0° 34° (NNE) 2,848 ? -15.7°
